Hourly Data Report for December 07, 2019

All times are specified in Local Standard Time (LST). Add 1 hour to adjust for Daylight Saving Time where and when it is observed.

VICTORIA UNIVERSITY CS
BRITISH COLUMBIA
Current Station Operator: ECCC - MSC

48°27'25.200" N
123°18'16.600" W
60.10 m
1018598
71783
WYJ

Download Data

Hourly Data (December 2019)
Hourly Data Report for December 7, 2019
TIME Temp Definition
°C
Dew Point Definition
°C
Rel Hum Definition
%
Wind Dir Definition
10's deg

Wind Spd Definition
km/h
Visibility Definition
km
Stn Press Definition
kPa
Hmdx Definition


Wind Chill Definition


Weather Definition


00:00 7.3 6.8 97 1 6   100.05     LegendNANA
01:00 7.2 6.7 97 32 1   100.02     LegendNANA
02:00 6.9 6.5 98 26 1   99.98     LegendNANA
03:00 7.3 7.1 98 2 2   99.94     LegendNANA
04:00 7.5 7.3 98 8 2   99.88     LegendNANA
05:00 7.7 7.5 99 0 1   99.85     LegendNANA
06:00 7.7 7.5 99 35 3   99.82     LegendNANA
07:00 7.8 7.5 99 33 2   99.83     LegendNANA
08:00 7.7 7.5 99   0   99.86     LegendNANA
09:00 8.0 7.8 99   0   99.90     LegendNANA
10:00 8.2 8.0 99   0   99.94     LegendNANA
11:00 8.3 8.1 99 15 2   99.95     LegendNANA
12:00 8.6 8.4 99 9 1   99.95     LegendNANA
13:00 8.6 8.4 99   0   99.95     LegendNANA
14:00 8.6 8.4 98 12 2   99.94     LegendNANA
15:00 8.4 8.2 99 0 1   99.94     LegendNANA
16:00 8.3 8.0 98 0 1   100.00     LegendNANA
17:00 8.2 7.9 98 0 1   100.05     LegendNANA
18:00 8.1 7.9 98   0   100.10     LegendNANA
19:00 8.0 7.7 99 34 2   100.13     LegendNANA
20:00 7.9 7.7 99 0 1   100.19     LegendNANA
21:00 8.1 8.0 99 33 3   100.29     LegendNANA
22:00 8.2 8.0 99 34 3   100.33     LegendNANA
23:00 8.3 8.1 99 34 4   100.39     LegendNANA

Notes on Data Quality.

Legend

  • E = Estimated
  • M = Missing
  • NA = Not Available
Date modified: